{"data":{"norad_id":69975,"epoch":"2026-09-19T08:51:38.173248Z","epoch_age_seconds":115472,"freshness":"FRESH","line1":"1 69975U 26159A   26262.36919182  .00031430  00000+0  57686-3 0  9991","line2":"2 69975  97.2848 104.1992 0001769  92.0519 268.0935 15.49207568 12273","mean_motion":15.49207568,"eccentricity":0.0001769,"inclination_deg":97.2848,"raan_deg":104.1992,"arg_perigee_deg":92.0519,"mean_anomaly_deg":268.0935,"bstar":0.00057686,"rev_number":1227,"period_min":92.950746545798,"perigee_km":417.84053494983,"apogee_km":420.2453772183,"semimajor_km":6797.1799560841,"source":"CELESTRAK","updated_at":"2026-09-20T09:00:44.305072Z"}}